When you browse on this site, cookies collect data to enhance your experience and personalize the content and advertising you see.
Visit our Privacy Policy to learn more. By continuing to use the site, you agree to this use of cookies and data.
  • In Hungary
  • List of Countries
  • For 7 days
  • Water Temperature
  • Weather Map
  • News
  • Weather Widgets
  • user-avatar
    Login

    Hourly Weather Malooleksandrivka

    Today, 17 November, Sunday

    Time Temperature Precipitation Wind Pressure Humidity
    00:00 +1°C° 0 mm 3 mps 760 mmHg 90%
    01:00 +1°C° 0 mm 3 mps 760 mmHg 91%
    02:00 +1°C° 0 mm 3 mps 760 mmHg 93%
    03:00 0°C° 0 mm 3 mps 760 mmHg 94%
    04:00 0°C° 0 mm 3 mps 760 mmHg 94%
    05:00 0°C° 0 mm 3 mps 760 mmHg 95%
    06:00 0°C° 0 mm 3 mps 760 mmHg 96%
    07:00 0°C° 0 mm 3 mps 760 mmHg 95%
    08:00 -1°C° 0 mm 4 mps 760 mmHg 94%
    09:00 0°C° 0 mm 4 mps 761 mmHg 93%
    10:00 0°C° 0 mm 4 mps 760 mmHg 90%
    11:00 +1°C° 0 mm 4 mps 760 mmHg 86%
    12:00 +3°C° 0 mm 4 mps 760 mmHg 82%
    13:00 +4°C° 0 mm 4 mps 760 mmHg 78%
    14:00 +5°C° 0 mm 3 mps 760 mmHg 74%
    15:00 +7°C° 0 mm 3 mps 760 mmHg 71%
    16:00 +5°C° 0 mm 3 mps 759 mmHg 76%
    17:00 +4°C° 0 mm 3 mps 759 mmHg 81%
    18:00 +3°C° 0 mm 3 mps 759 mmHg 86%
    19:00 +3°C° 0 mm 3 mps 759 mmHg 87%
    20:00 +2°C° 0 mm 3 mps 759 mmHg 88%
    21:00 +2°C° 0 mm 3 mps 759 mmHg 89%
    22:00 +2°C° 0 mm 3 mps 759 mmHg 90%
    23:00 +2°C° 0 mm 3 mps 759 mmHg 90%

    Tomorrow, 18 November, Monday

    Time Temperature Precipitation Wind Pressure Humidity
    00:00 +2°C° 0 mm 3 mps 759 mmHg 91%
    01:00 +1°C° 0 mm 3 mps 759 mmHg 92%
    02:00 +1°C° 0 mm 3 mps 759 mmHg 92%
    03:00 +1°C° 0 mm 3 mps 759 mmHg 92%
    04:00 +1°C° 0 mm 3 mps 758 mmHg 93%
    05:00 +1°C° 0 mm 3 mps 758 mmHg 93%
    06:00 0°C° 0 mm 3 mps 758 mmHg 94%
    07:00 +1°C° 0 mm 3 mps 758 mmHg 93%
    08:00 +1°C° 0 mm 3 mps 758 mmHg 93%
    09:00 +1°C° 0 mm 3 mps 759 mmHg 92%
    10:00 +3°C° 0 mm 3 mps 758 mmHg 85%
    11:00 +5°C° 0 mm 3 mps 758 mmHg 78%
    12:00 +6°C° 0 mm 4 mps 758 mmHg 71%
    13:00 +8°C° 0 mm 3 mps 757 mmHg 68%
    14:00 +8°C° 0 mm 3 mps 757 mmHg 65%
    15:00 +9°C° 0 mm 3 mps 757 mmHg 62%
    16:00 +8°C° 0 mm 3 mps 757 mmHg 69%
    17:00 +5°C° 0 mm 3 mps 757 mmHg 75%
    18:00 +5°C° 0 mm 2 mps 757 mmHg 81%
    19:00 +5°C° 0 mm 2 mps 757 mmHg 83%
    20:00 +4°C° 0 mm 2 mps 757 mmHg 85%
    21:00 +4°C° 0 mm 2 mps 757 mmHg 87%
    22:00 +4°C° 0 mm 2 mps 757 mmHg 88%
    23:00 +3°C° 0 mm 2 mps 757 mmHg 88%

    Day after tomorrow, 19 November, Tuesday

    Time Temperature Precipitation Wind Pressure Humidity
    00:00 +3°C° 0 mm 2 mps 757 mmHg 89%
    01:00 +3°C° 0 mm 2 mps 757 mmHg 89%
    02:00 +4°C° 0 mm 1 mps 757 mmHg 89%
    03:00 +4°C° 0 mm 1 mps 757 mmHg 89%
    04:00 +3°C° 0 mm 1 mps 757 mmHg 90%
    05:00 +3°C° 0 mm 1 mps 757 mmHg 90%
    06:00 +3°C° 0 mm 1 mps 757 mmHg 90%
    07:00 +2°C° 0 mm 2 mps 757 mmHg 90%
    08:00 +2°C° 0 mm 2 mps 757 mmHg 89%
    09:00 +3°C° 0 mm 2 mps 757 mmHg 88%
    10:00 +4°C° 0 mm 2 mps 757 mmHg 81%
    11:00 +6°C° 0 mm 2 mps 757 mmHg 74%
    12:00 +7°C° 0 mm 2 mps 757 mmHg 66%
    13:00 +8°C° 0 mm 2 mps 757 mmHg 64%
    14:00 +8°C° 0 mm 2 mps 757 mmHg 63%
    15:00 +9°C° 0 mm 2 mps 757 mmHg 61%
    16:00 +8°C° 0 mm 2 mps 757 mmHg 66%
    17:00 +6°C° 0 mm 2 mps 757 mmHg 72%
    18:00 +5°C° 0 mm 2 mps 757 mmHg 77%
    19:00 +4°C° 0 mm 2 mps 757 mmHg 79%
    20:00 +4°C° 0 mm 2 mps 757 mmHg 81%
    21:00 +3°C° 0 mm 2 mps 757 mmHg 83%
    22:00 +3°C° 0 mm 2 mps 757 mmHg 84%
    23:00 +3°C° 0 mm 2 mps 757 mmHg 85%

    20 November, Wednesday

    Time Temperature Precipitation Wind Pressure Humidity
    00:00 +2°C° 0 mm 2 mps 758 mmHg 86%
    01:00 +2°C° 0 mm 2 mps 758 mmHg 87%
    02:00 +1°C° 0 mm 3 mps 758 mmHg 88%
    03:00 0°C° 0 mm 3 mps 758 mmHg 89%
    04:00 0°C° 0 mm 3 mps 758 mmHg 90%
    05:00 0°C° 0 mm 3 mps 758 mmHg 91%
    06:00 -1°C° 0 mm 3 mps 758 mmHg 91%
    07:00 -1°C° 0 mm 4 mps 759 mmHg 90%
    08:00 -1°C° 0 mm 4 mps 759 mmHg 88%
    09:00 -1°C° 0 mm 5 mps 759 mmHg 86%
    10:00 0°C° 0 mm 5 mps 760 mmHg 82%
    11:00 +2°C° 0 mm 6 mps 760 mmHg 77%
    12:00 +3°C° 0 mm 6 mps 760 mmHg 72%
    13:00 +3°C° 0 mm 6 mps 760 mmHg 73%
    14:00 +3°C° 0 mm 6 mps 760 mmHg 73%
    15:00 +3°C° 0 mm 6 mps 760 mmHg 74%
    16:00 +2°C° 0 mm 6 mps 761 mmHg 73%
    17:00 +2°C° 0 mm 6 mps 761 mmHg 72%
    18:00 +1°C° 0 mm 6 mps 762 mmHg 71%
    19:00 -1°C° 0 mm 6 mps 762 mmHg 70%
    20:00 -2°C° 0 mm 7 mps 763 mmHg 69%
    21:00 -3°C° 0 mm 7 mps 763 mmHg 67%
    22:00 -4°C° 0 mm 7 mps 763 mmHg 64%
    23:00 -6°C° 0 mm 7 mps 764 mmHg 61%

    21 November, Thursday

    Time Temperature Precipitation Wind Pressure Humidity
    00:00 -6°C° 0 mm 6 mps 764 mmHg 58%
    01:00 -8°C° 0 mm 6 mps 764 mmHg 54%
    02:00 -9°C° 0 mm 6 mps 764 mmHg 50%
    03:00 -9°C° 0 mm 6 mps 765 mmHg 46%
    04:00 -10°C° 0 mm 6 mps 765 mmHg 45%
    05:00 -10°C° 0 mm 6 mps 765 mmHg 43%
    06:00 -11°C° 0 mm 6 mps 765 mmHg 42%
    07:00 -11°C° 0 mm 6 mps 765 mmHg 41%
    08:00 -11°C° 0 mm 6 mps 766 mmHg 40%
    09:00 -12°C° 0 mm 7 mps 766 mmHg 40%
    10:00 -11°C° 0 mm 7 mps 766 mmHg 38%
    11:00 -9°C° 0 mm 7 mps 766 mmHg 36%
    12:00 -8°C° 0 mm 7 mps 766 mmHg 34%
    13:00 -7°C° 0 mm 7 mps 766 mmHg 32%
    14:00 -7°C° 0 mm 7 mps 766 mmHg 30%
    15:00 -6°C° 0 mm 7 mps 765 mmHg 29%
    16:00 -6°C° 0 mm 6 mps 765 mmHg 29%
    17:00 -8°C° 0 mm 6 mps 765 mmHg 30%
    18:00 -9°C° 0 mm 6 mps 766 mmHg 30%
    19:00 -9°C° 0 mm 6 mps 766 mmHg 32%
    20:00 -9°C° 0 mm 6 mps 766 mmHg 34%
    21:00 -10°C° 0 mm 6 mps 766 mmHg 36%
    22:00 -10°C° 0 mm 6 mps 766 mmHg 39%
    23:00 -10°C° 0 mm 6 mps 766 mmHg 41%

    22 November, Friday

    Time Temperature Precipitation Wind Pressure Humidity
    00:00 -11°C° 0 mm 6 mps 766 mmHg 44%
    01:00 -11°C° 0 mm 6 mps 766 mmHg 46%
    02:00 -11°C° 0 mm 6 mps 766 mmHg 47%
    03:00 -11°C° 0 mm 6 mps 766 mmHg 49%
    04:00 -11°C° 0 mm 6 mps 766 mmHg 50%
    05:00 -12°C° 0 mm 6 mps 766 mmHg 50%
    06:00 -12°C° 0 mm 6 mps 766 mmHg 51%
    07:00 -11°C° 0 mm 6 mps 766 mmHg 50%
    08:00 -11°C° 0 mm 6 mps 766 mmHg 49%
    09:00 -11°C° 0 mm 6 mps 766 mmHg 47%
    10:00 -10°C° 0 mm 6 mps 766 mmHg 44%
    11:00 -8°C° 0 mm 7 mps 766 mmHg 41%
    12:00 -7°C° 0 mm 7 mps 766 mmHg 39%
    13:00 -6°C° 0 mm 7 mps 765 mmHg 38%
    14:00 -6°C° 0 mm 7 mps 765 mmHg 37%
    15:00 -4°C° 0 mm 6 mps 765 mmHg 37%
    16:00 -5°C° 0 mm 6 mps 765 mmHg 39%
    17:00 -6°C° 0 mm 6 mps 765 mmHg 41%
    18:00 -7°C° 0 mm 5 mps 765 mmHg 43%
    19:00 -7°C° 0 mm 5 mps 765 mmHg 42%
    20:00 -8°C° 0 mm 5 mps 765 mmHg 42%
    21:00 -8°C° 0 mm 5 mps 765 mmHg 42%
    22:00 -8°C° 0 mm 5 mps 765 mmHg 43%
    23:00 -8°C° 0 mm 5 mps 765 mmHg 44%
    Show more